Weather History for KMOP - April, 2014

Change the Weather History Date:

Thursday, April 10, 2014

  Actual Average (KAMN) Record (KAMN)
Temperature  
Mean Temperature 54 °F -  
Max Temperature 63 °F 51 °F 82 °F (2011)
Min Temperature 45 °F 29 °F 15 °F (1989)
Degree Days  
Heating Degree Days 11    
Growing Degree Days 4 (Base 50)    
Moisture  
Dew Point 35 °F    
Average Humidity 51    
Maximum Humidity 73    
Minimum Humidity 36    
Precipitation  
Precipitation 0.01 in - - ()
Sea Level Pressure  
Sea Level Pressure 29.72 in    
Wind  
Wind Speed 11 mph (SW)    
Max Wind Speed 22 mph    
Max Gust Speed 33 mph    
Visibility 10 miles    
Events Rain    
Averages and records for this station are not official NWS values.
T = Trace of Precipitation, MM = Missing Value Source: NWS Daily Summary

Daily Weather History Graph

Daily Weather History Graph

Search for Another Location

Airport or City:

Trip Planner

Search our weather history database for the weather conditions in past years. The results will help you decide how hot, cold, wet, or windy it might be!

Date:

Astronomy

Apr. 10, 2014 Rise Set
Actual Time 7:04 AM EDT 8:16 PM EDT
Civil Twilight 6:35 AM EDT 8:46 PM EDT
Nautical Twilight 6:00 AM EDT 9:21 PM EDT
Astronomical Twilight 5:22 AM EDT 9:58 PM EDT
Moon 3:52 PM EDT (4/10) 4:35 AM EDT (4/10)
Length of Visible Light 14h 10m
Length of Day
13h 11m
Waxing Gibbous, 79% of the Moon is Illuminated
Apr 10
Waxing Gibbous
Apr 15
Full
Apr 22
Last Quarter
Apr 29
New
May 6
First Quarter

Hourly Weather History & Observations

Time (EDT) Temp. Windchill Dew Point Humidity Pressure Visibility Wind Dir Wind Speed Gust Speed Precip Events Conditions
12:15 AM 46.9 °F - 31.1 °F 54% 29.81 in 10.0 mi South 5.8 mph - N/A   Clear
12:35 AM 46.6 °F - 31.8 °F 56% 29.80 in 10.0 mi South 6.9 mph - N/A   Clear
12:55 AM 46.0 °F 42.5 °F 32.0 °F 58% 29.80 in 10.0 mi South 6.9 mph - N/A   Clear
1:15 AM 45.9 °F 42.3 °F 32.0 °F 58% 29.79 in 10.0 mi South 6.9 mph - N/A   Clear
1:35 AM 46.9 °F - 32.0 °F 56% 29.78 in 10.0 mi South 6.9 mph - N/A   Clear
1:55 AM 48.2 °F - 32.0 °F 54% 29.78 in 10.0 mi SSW 10.4 mph - N/A   Clear
2:15 AM 49.1 °F - 31.8 °F 51% 29.77 in 10.0 mi SSW 12.7 mph 17.3 mph N/A   Clear
2:35 AM 49.1 °F - 31.6 °F 51% 29.76 in 10.0 mi South 10.4 mph 17.3 mph N/A   Clear
2:55 AM 49.3 °F - 31.5 °F 50% 29.75 in 10.0 mi SSW 9.2 mph 16.1 mph N/A   Clear
3:15 AM 49.5 °F - 31.1 °F 49% 29.74 in 10.0 mi SSW 9.2 mph 16.1 mph N/A   Clear
3:35 AM 49.8 °F - 31.1 °F 49% 29.73 in 10.0 mi SSW 11.5 mph - N/A   Clear
3:55 AM 50.4 °F - 30.9 °F 47% 29.73 in 10.0 mi SSW 11.5 mph 19.6 mph N/A   Clear
4:15 AM 50.9 °F - 31.1 °F 47% 29.73 in 10.0 mi SSW 10.4 mph 17.3 mph N/A   Clear
4:35 AM 50.5 °F - 31.5 °F 48% 29.72 in 10.0 mi SW 13.8 mph 17.3 mph N/A   Clear
4:55 AM 50.4 °F - 31.8 °F 49% 29.72 in 10.0 mi SSW 12.7 mph 20.7 mph N/A   Clear
5:15 AM 50.0 °F - 32.0 °F 50% 29.71 in 10.0 mi SSW 15.0 mph - N/A   Clear
5:35 AM 49.8 °F - 32.0 °F 50% 29.70 in 10.0 mi SSW 13.8 mph 19.6 mph N/A   Clear
5:55 AM 50.2 °F - 32.0 °F 50% 29.68 in 10.0 mi SSW 17.3 mph 26.5 mph N/A   Clear
6:15 AM 50.0 °F - 32.0 °F 50% 29.69 in 10.0 mi SSW 16.1 mph 25.3 mph N/A   Clear
6:35 AM 50.0 °F - 32.0 °F 50% 29.69 in 10.0 mi SSW 15.0 mph 21.9 mph N/A   Clear
6:55 AM 49.6 °F - 32.0 °F 51% 29.68 in 10.0 mi SSW 13.8 mph 20.7 mph N/A   Clear
7:15 AM 50.0 °F - 32.0 °F 50% 29.68 in 10.0 mi SSW 16.1 mph 20.7 mph N/A   Clear
7:35 AM 50.4 °F - 31.8 °F 49% 29.67 in 10.0 mi South 12.7 mph 21.9 mph N/A   Clear
7:55 AM 51.3 °F - 31.6 °F 47% 29.67 in 10.0 mi South 15.0 mph 21.9 mph N/A   Clear
8:15 AM 52.7 °F - 31.8 °F 45% 29.66 in 10.0 mi SSW 11.5 mph 20.7 mph N/A   Clear
8:35 AM 53.8 °F - 31.8 °F 43% 29.66 in 10.0 mi SSW 15.0 mph 18.4 mph N/A   Clear
8:55 AM 54.0 °F - 32.0 °F 43% 29.66 in 10.0 mi SSW 17.3 mph 25.3 mph N/A   Clear
9:15 AM 55.8 °F - 32.0 °F 41% 29.66 in 10.0 mi SSW 13.8 mph - N/A   Clear
9:35 AM 57.2 °F - 32.0 °F 38% 29.66 in 10.0 mi SSW 15.0 mph 23.0 mph N/A   Clear
9:55 AM 58.5 °F - 32.4 °F 37% 29.65 in 10.0 mi SSW 11.5 mph 24.2 mph N/A   Clear
10:15 AM 60.1 °F - 32.9 °F 36% 29.64 in 10.0 mi SSW 16.1 mph 21.9 mph N/A   Clear
10:35 AM 61.0 °F - 33.6 °F 36% 29.64 in 10.0 mi SW 13.8 mph 26.5 mph N/A   Clear
10:55 AM 61.2 °F - 34.2 °F 36% 29.63 in 10.0 mi SW 17.3 mph 26.5 mph N/A   Clear
11:15 AM 61.9 °F - 34.7 °F 36% 29.63 in 10.0 mi SW 21.9 mph 33.4 mph N/A   Clear
11:35 AM 63.0 °F - 35.4 °F 36% 29.62 in 10.0 mi SW 17.3 mph 29.9 mph N/A   Clear
11:55 AM 62.8 °F - 35.8 °F 37% 29.62 in 10.0 mi SW 20.7 mph 27.6 mph N/A   Clear
12:15 PM 63.0 °F - 35.8 °F 36% 29.61 in 10.0 mi SSW 20.7 mph 27.6 mph N/A   Clear
12:35 PM 63.3 °F - 36.7 °F 37% 29.61 in 10.0 mi SW 18.4 mph 26.5 mph N/A   Clear
12:55 PM 62.6 °F - 37.0 °F 39% 29.62 in 10.0 mi WSW 16.1 mph 27.6 mph N/A   Clear
1:15 PM 63.5 °F - 37.4 °F 38% 29.65 in 10.0 mi WSW 18.4 mph 28.8 mph N/A   Scattered Clouds
1:35 PM 61.2 °F - 36.9 °F 40% 29.65 in 10.0 mi WSW 20.7 mph 31.1 mph N/A   Mostly Cloudy
1:55 PM 59.2 °F - 37.2 °F 44% 29.64 in 10.0 mi WSW 11.5 mph 21.9 mph N/A   Overcast
2:15 PM 56.3 °F - 42.6 °F 60% 29.63 in 10.0 mi SSW 8.1 mph - N/A Rain Light Rain
2:35 PM 54.9 °F - 44.6 °F 68% 29.66 in 10.0 mi WSW 12.7 mph - 0.01 in Rain Light Rain
2:55 PM 54.3 °F - 45.0 °F 71% 29.69 in 10.0 mi West 11.5 mph 18.4 mph 0.01 in Rain Light Rain
3:15 PM 52.7 °F - 43.7 °F 71% 29.69 in 10.0 mi WSW 12.7 mph 19.6 mph N/A   Light Drizzle
3:35 PM 51.8 °F - 43.3 °F 73% 29.70 in 10.0 mi WSW 11.5 mph - N/A   Overcast
3:55 PM 51.8 °F - 43.5 °F 73% 29.70 in 10.0 mi West 9.2 mph - N/A   Overcast
4:15 PM 51.3 °F - 41.9 °F 70% 29.70 in 10.0 mi WNW 8.1 mph 17.3 mph N/A   Overcast
4:35 PM 50.9 °F - 41.4 °F 70% 29.71 in 10.0 mi West 5.8 mph - N/A   Overcast
4:55 PM 51.4 °F - 42.4 °F 71% 29.71 in 10.0 mi West 6.9 mph - N/A   Overcast
5:15 PM 52.7 °F - 42.8 °F 69% 29.72 in 10.0 mi West 8.1 mph - N/A   Scattered Clouds
5:35 PM 54.0 °F - 42.4 °F 65% 29.73 in 10.0 mi WSW 9.2 mph - N/A   Clear
5:55 PM 54.7 °F - 41.5 °F 61% 29.73 in 10.0 mi West 11.5 mph 16.1 mph N/A   Clear
6:15 PM 55.6 °F - 40.5 °F 57% 29.74 in 10.0 mi West 13.8 mph 17.3 mph N/A   Clear
6:35 PM 56.3 °F - 38.5 °F 51% 29.75 in 10.0 mi West 11.5 mph - N/A   Clear
6:55 PM 55.4 °F - 34.3 °F 45% 29.76 in 10.0 mi West 11.5 mph 20.7 mph N/A   Clear
7:15 PM 55.4 °F - 32.4 °F 42% 29.77 in 10.0 mi West 9.2 mph - N/A   Clear
7:35 PM 54.0 °F - 32.9 °F 45% 29.77 in 10.0 mi West 6.9 mph - N/A   Clear
7:55 PM 53.2 °F - 33.8 °F 48% 29.78 in 10.0 mi WSW 10.4 mph - N/A   Clear
8:15 PM 52.0 °F - 34.3 °F 51% 29.79 in 10.0 mi WSW 6.9 mph - N/A   Clear
8:35 PM 50.7 °F - 34.7 °F 54% 29.80 in 10.0 mi WSW 5.8 mph - N/A   Clear
8:55 PM 50.0 °F - 34.3 °F 55% 29.80 in 10.0 mi SW 4.6 mph - N/A   Clear
9:15 PM 49.6 °F - 32.5 °F 52% 29.81 in 10.0 mi SW 4.6 mph - N/A   Clear
9:35 PM 48.7 °F - 32.0 °F 52% 29.83 in 10.0 mi SW 5.8 mph - N/A   Clear
9:55 PM 48.2 °F - 31.6 °F 53% 29.84 in 10.0 mi SW 4.6 mph - N/A   Clear
10:15 PM 47.7 °F - 30.6 °F 52% 29.85 in 10.0 mi SW 5.8 mph - N/A   Clear
10:35 PM 46.8 °F - 30.2 °F 53% 29.86 in 10.0 mi SW 4.6 mph - N/A   Clear
10:55 PM 46.4 °F 45.2 °F 30.2 °F 53% 29.86 in 10.0 mi WSW 3.5 mph - N/A   Clear
11:15 PM 46.0 °F 43.9 °F 29.5 °F 52% 29.86 in 10.0 mi WSW 4.6 mph - N/A   Clear
11:35 PM 45.9 °F 42.9 °F 28.9 °F 52% 29.87 in 10.0 mi WSW 5.8 mph - N/A   Clear
11:55 PM 45.1 °F 42.0 °F 28.8 °F 53% 29.87 in 10.0 mi WSW 5.8 mph - N/A   Clear